Terminal Aerodrome Forecast
Issued by NWS

Home | Current Version | Previous Version | Text Only | Print | Product List | Glossary On
Versions: 1 2 3 4 5 6 7 8 9 10 11 12 13 14 15 16 17 18 19 20 21 22 23 24 25 26 27 28 29 30 31 32 33 34
673
FTUS41 KOKX 211739
TAFHPN
TAF
KHPN 211739Z 2118/2218 30011G18KT P6SM SCT250
     FM212300 31006KT P6SM SKC
      AMD NOT SKED=

USA.gov is the U.S. government's official web portal to all federal, state and local government web resources and services.